CZ-2C DEB (55848 NORAD) Tracking and Keplerian Element Data

This shows tracking and keplerian element data for the satellite.

Feedback or suggestion? Click here.




ElementValue
Catalog55848
NameCZ-2C DEB
Epoch Orbit192
Epoch Day85.1401462
Epoch Year2023
RAAN157.805
Inclination97.2686
Eccentricity0.0163564
Argument of Perigee124.9639
Mean Anonmoly236.6568
Mean Motion14.86843387
Decay Rate0.00067869
L11 55848U 23032E 23085.14014620 .00067869 00000+0 59101-2 0 9999
L22 55848 97.2686 157.8050 0163564 124.9639 236.6568 14.86843387 1925



Live tracking and technical data element details for CZ-2C DEB (NORAD 55848). CZ-2C DEB can be tracked NOW for your location showing map with azimuth and elevation plus other details from your city location.







IsCatalogInMostPopularTable: catalog: 55848, numindb: 7
Update: records affected: 1



GetName: 55848 CZ-2C DEB

Hit Count: updated at: Tue, 06 Jun 2023 02:59:50 GMT